[[{"header":{"parameterUnit":"m.s-1","parameterCategory":1,"la1":30.2991,"la2":30.254,"lo1":-89.0895,"lo2":-89.0444,"dy":0.0017,"dx":0.0017,"nx":28,"ny":28,"refTime":"2025-01-20T03:00:00:Z","depth":0,"parameterNumber":2,"parameterNumberName":"U-component_of_WINDS"},"data":[0,0,0,0,0,0,0,0,0,0,0,0,0,0,0,0,0,0,0,0,0,0,0,0,0,0,0,0,0,0,0,0,0,0,0,0,0,0,0,0,0,0,0,0,0,0,0,0,0,0,0,0,0,0,0,0,0,0,-2.6526,-2.6526,0,-2.6552,-2.6553,-2.6553,-2.6492,-2.649,-2.6488,-2.6486,-2.6514,-2.6517,-2.6519,0,0,0,0,0,0,0,0,0,0,0,0,0,-2.6423,-2.6425,-2.6526,-2.6526,-2.6527,-2.6552,-2.6553,-2.6553,-2.6492,-2.649,-2.6487,-2.6485,-2.6513,-2.6516,-2.6519,0,0,0,0,0,0,0,0,0,0,0,0,0,-2.646,-2.6426,-2.6526,-2.6499,-2.6497,-2.6552,-2.6553,-2.6553,-2.6493,-2.649,-2.6487,-2.6484,-2.6512,-2.6516,-2.652,-2.6602,0,0,-2.6532,-2.6533,0,0,0,0,0,0,0,0,-2.6458,-2.6464,-2.6503,-2.6501,-2.6499,-2.6516,-2.6527,-2.657,-2.6493,-2.6494,-2.6486,-2.6483,-2.6517,-2.652,-2.6532,-2.6604,-2.6605,-2.6532,-2.6534,-2.6536,-2.6537,0,0,0,0,0,0,0,-2.6456,-2.6463,-2.6536,-2.6503,-2.6501,-2.6486,-2.6488,-2.6534,-2.6522,-2.6494,-2.649,-2.6494,-2.6515,-2.6528,-2.6532,-2.6605,-2.6532,-2.6535,-2.6538,-2.6539,-2.6746,-2.6749,0,0,0,0,0,0,-2.6456,-2.6461,-2.6536,-2.6537,-2.6471,-2.649,-2.6493,-2.6513,-2.6521,-2.652,-2.6496,-2.6491,-2.6523,-2.6528,-2.6533,-2.663,-2.6536,-2.6539,-2.6542,-2.6743,-2.6747,-2.675,0,0,0,0,0,0,-2.6454,-2.6464,-2.6534,-2.6498,-2.6506,-2.6495,-2.6519,-2.6515,-2.6528,-2.6523,-2.652,-2.6511,-2.6521,-2.6527,-2.6585,-2.663,-2.6541,-2.6545,-2.6739,-2.6744,-2.6748,-2.6826,0,0,0,0,0,0,-2.6452,-2.6463,-2.6495,-2.6499,-2.6508,-2.6587,-2.6522,-2.6518,-2.6535,-2.6528,-2.6536,-2.6535,-2.6519,-2.658,-2.6589,-2.6634,-2.6548,-2.6735,-2.6741,-2.6747,-2.6819,-2.6833,-2.6844,0,0,0,0,0,-2.6448,-2.6516,-2.6497,-2.6506,-2.6547,-2.659,-2.6595,-2.6575,-2.6539,-2.657,-2.6566,-2.6535,-2.6624,-2.6586,-2.6596,-2.6643,-2.6732,-2.6739,-2.6746,-2.6814,-2.683,-2.6844,0,0,0,0,0,0,-2.6517,-2.6516,-2.6495,-2.6565,-2.6578,-2.6579,-2.6618,-2.6593,-2.6616,-2.6609,-2.6583,-2.6586,-2.6649,-2.6651,-2.661,-2.6723,-2.6672,-2.6681,-2.672,-2.6735,-2.6747,-2.6746,-2.6551,0,0,0,0,0,-2.6541,-2.6576,-2.6572,-2.6635,-2.6642,-2.6629,-2.6647,-2.6631,-2.6643,-2.6648,-2.6649,-2.6662,-2.6693,-2.6714,-2.6742,-2.6819,-2.682,-2.6856,-2.6868,-2.6878,-2.6887,-2.6928,-2.6944,-2.6774,-2.6773,-2.6773,0,0,-2.659,-2.6593,-2.6617,-2.6649,-2.6657,-2.6694,-2.6634,-2.6676,-2.6703,-2.6654,-2.671,-2.671,-2.6723,-2.6791,-2.6821,-2.6796,-2.6934,-2.6887,-2.6896,-2.6899,-2.6937,-2.6954,-2.6968,-2.6778,-2.6777,-2.6777,0,0,-2.6698,-2.6704,-2.6757,-2.6766,-2.6778,-2.6769,-2.6782,-2.6787,-2.6785,-2.684,-2.6804,-2.6836,-2.6889,-2.69,-2.6913,-2.7024,-2.6996,-2.7034,-2.7099,-2.714,-2.7153,-2.7165,-2.7205,-2.722,-2.7042,-2.7042,-2.7043,0,-2.6758,-2.6811,-2.6787,-2.6831,-2.6847,-2.6803,-2.6857,-2.6867,-2.6888,-2.69,-2.687,-2.6936,-2.6942,-2.7012,-2.7039,-2.705,-2.7064,-2.7033,-2.7153,-2.7165,-2.7175,-2.7214,-2.7229,-2.7047,-2.7046,-2.7046,-2.7046,0,-2.6884,-2.6922,-2.6963,-2.6985,-2.7004,-2.7053,-2.7037,-2.7059,-2.704,-2.7034,-2.709,-2.7095,-2.7124,-2.7139,-2.7121,-2.7207,-2.719,-2.7157,-2.7105,-2.7197,-2.7232,-2.7247,-2.7054,-2.7052,-2.7051,-2.7049,0,0,-2.7039,-2.7045,-2.7061,-2.707,-2.708,-2.7109,-2.7155,-2.7182,-2.7203,-2.7218,-2.7257,-2.7303,-2.7272,-2.7286,-2.7269,-2.7305,-2.7393,-2.7267,-2.7267,-2.7291,-2.7488,-2.7514,-2.7531,-2.7374,-2.7376,-2.7378,-2.7487,0,-2.7146,-2.7226,-2.7205,-2.7285,-2.732,-2.7279,-2.7319,-2.733,-2.7325,-2.7354,-2.7348,-2.7381,-2.7338,-2.7346,-2.7379,-2.7375,-2.7432,-2.7367,-2.741,-2.7412,-2.741,-2.755,-2.7577,-2.768,-2.7501,-2.7503,-2.7505,0,-2.7283,-2.7304,-2.7387,-2.7391,-2.7405,-2.7442,-2.7465,-2.7493,-2.7504,-2.7497,-2.7513,-2.7489,-2.7534,-2.7481,-2.7544,-2.75,-2.7516,-2.7516,-2.752,-2.7524,-2.7465,-2.7559,-2.7712,-2.7728,-2.7526,-2.7525,-2.7523,0,-2.7389,-2.7437,-2.7493,-2.7502,-2.7508,-2.7535,-2.7538,-2.7546,-2.7564,-2.7584,-2.7595,-2.762,-2.7635,-2.7655,-2.7637,-2.76,-2.7703,-2.7648,-2.77,-2.7701,-2.7725,-2.7724,-2.7884,-2.7734,-2.7733,-2.7733,-2.7733,0,-2.7512,-2.7565,-2.7541,-2.7575,-2.7633,-2.7608,-2.7666,-2.7665,-2.7672,-2.7706,-2.7671,-2.7704,-2.7678,-2.7708,-2.7695,-2.775,-2.7756,-2.7753,-2.7749,-2.7757,-2.7757,-2.7768,-2.7761,-2.7737,-2.7736,-2.7735,-2.7735,0,-2.7641,-2.7626,-2.7685,-2.7685,-2.7686,-2.7729,-2.7729,-2.7761,-2.7753,-2.7796,-2.7805,-2.7793,-2.7826,-2.7811,-2.7846,-2.7837,-2.7907,-2.7893,-2.7904,-2.7901,-2.7954,-2.795,-2.8127,-2.815,-2.7984,-2.7985,-2.7987,0,-2.7721,-2.7761,-2.7765,-2.7785,-2.7791,-2.7824,-2.7841,-2.7818,-2.7838,-2.7853,-2.7883,-2.7913,-2.7937,-2.7992,-2.7987,-2.8013,-2.8,-2.8061,-2.8004,-2.8011,-2.8003,-2.8001,-2.8005,-2.8073,-2.8075,-2.8076,-2.8077,0,-2.7866,-2.7857,-2.7884,-2.7908,-2.793,-2.7948,-2.7963,-2.7981,-2.7958,-2.7982,-2.8016,-2.8034,-2.8069,-2.81,-2.8123,-2.8127,-2.8099,-2.8095,-2.8109,-2.8118,-2.8123,-2.8122,-2.7936,-2.8091,-2.809,-2.8089,-2.8088,-2.8088,-2.7974,-2.8007,-2.8015,-2.8046,-2.8055,-2.8069,-2.81,-2.8095,-2.8123,-2.815,-2.8134,-2.8174,-2.8183,-2.8211,-2.8218,-2.8249,-2.8225,-2.8244,-2.825,-2.8255,-2.8263,-2.8117,-2.8253,-2.8252,-2.8252,-2.8251,-2.8251,0,-2.8118,-2.8121,-2.8149,-2.8171,-2.8195,-2.8166,-2.818,-2.8203,-2.8238,-2.8249,-2.8272,-2.8311,-2.834,-2.8336,-2.8363,-2.8389,-2.8377,-2.8397,-2.8395,-2.8397,-2.8282,-2.8268,-2.8406,-2.8406,-2.8406,-2.8406,-2.8406,-2.8406,-2.8196,-2.8251,-2.8242,-2.8301,-2.8303,-2.8342,-2.8353,-2.8366,-2.8374,-2.8419,-2.8444,-2.844,-2.8445,-2.8472,-2.8498,-2.8496,-2.8508,-2.8533,-2.8527,-2.842,-2.8405,-2.839,-2.8377,-2.8536,-2.8536,-2.8639,-2.864,-2.864]},{"header":{"parameterUnit":"m.s-1","parameterCategory":1,"la1":30.2991,"la2":30.254,"lo1":-89.0895,"lo2":-89.0444,"dy":0.0017,"dx":0.0017,"nx":28,"ny":28,"refTime":"2025-01-20T03:00:00:Z","depth":0,"parameterNumber":3,"parameterNumberName":"V-component_of_WINDS"},"data":[0,0,0,0,0,0,0,0,0,0,0,0,0,0,0,0,0,0,0,0,0,0,0,0,0,0,0,0,0,0,0,0,0,0,0,0,0,0,0,0,0,0,0,0,0,0,0,0,0,0,0,0,0,0,0,0,0,0,-6.546,-6.5461,0,-6.5525,-6.5526,-6.5526,-6.5462,-6.546,-6.5457,-6.5455,-6.5517,-6.5521,-6.5524,0,0,0,0,0,0,0,0,0,0,0,0,0,-6.5277,-6.5281,-6.546,-6.5461,-6.5462,-6.5525,-6.5526,-6.5526,-6.5463,-6.546,-6.5457,-6.5454,-6.5515,-6.552,-6.5525,0,0,0,0,0,0,0,0,0,0,0,0,0,-6.5351,-6.5282,-6.546,-6.5438,-6.5436,-6.5525,-6.5526,-6.5527,-6.5464,-6.546,-6.5456,-6.5453,-6.5514,-6.552,-6.5526,-6.5637,0,0,-6.5544,-6.5546,0,0,0,0,0,0,0,0,-6.5347,-6.5357,-6.544,-6.544,-6.5438,-6.5482,-6.5484,-6.5564,-6.5464,-6.5453,-6.5455,-6.5451,-6.5508,-6.5514,-6.5534,-6.564,-6.5643,-6.5544,-6.5548,-6.555,-6.5552,0,0,0,0,0,0,0,-6.5342,-6.5354,-6.5486,-6.5442,-6.544,-6.5423,-6.5429,-6.5498,-6.5501,-6.5454,-6.5449,-6.5458,-6.5506,-6.5529,-6.5535,-6.5644,-6.5544,-6.5549,-6.5553,-6.5555,-6.5844,-6.5848,0,0,0,0,0,0,-6.534,-6.535,-6.5483,-6.5487,-6.5382,-6.5429,-6.5436,-6.5472,-6.55,-6.55,-6.5461,-6.5455,-6.552,-6.5528,-6.5537,-6.567,-6.555,-6.5556,-6.5559,-6.584,-6.5845,-6.5849,0,0,0,0,0,0,-6.5336,-6.5352,-6.5481,-6.5418,-6.5433,-6.5437,-6.5476,-6.5475,-6.5497,-6.5505,-6.5505,-6.5484,-6.5518,-6.5529,-6.5613,-6.5671,-6.5559,-6.5564,-6.5835,-6.5842,-6.5847,-6.5936,0,0,0,0,0,0,-6.5331,-6.5351,-6.5395,-6.5419,-6.5437,-6.5558,-6.548,-6.5479,-6.5508,-6.55,-6.5526,-6.5527,-6.5516,-6.5605,-6.5619,-6.5677,-6.5569,-6.583,-6.5838,-6.5845,-6.5928,-6.5945,-6.5959,0,0,0,0,0,-6.5325,-6.5416,-6.5397,-6.5414,-6.5492,-6.5561,-6.5571,-6.5557,-6.5513,-6.5556,-6.5561,-6.5526,-6.5662,-6.5614,-6.5629,-6.569,-6.5826,-6.5836,-6.5845,-6.5921,-6.5942,-6.5959,0,0,0,0,0,0,-6.5397,-6.5419,-6.5398,-6.5501,-6.553,-6.555,-6.5604,-6.5579,-6.5619,-6.561,-6.559,-6.5596,-6.5686,-6.5696,-6.5642,-6.58,-6.5737,-6.575,-6.579,-6.5809,-6.5824,-6.582,-6.5574,0,0,0,0,0,-6.5425,-6.5481,-6.5497,-6.5586,-6.5602,-6.5601,-6.563,-6.5618,-6.5646,-6.5657,-6.5668,-6.5696,-6.5745,-6.5777,-6.5823,-6.5929,-6.5934,-6.5979,-6.5994,-6.6007,-6.6018,-6.6075,-6.6095,-6.588,-6.588,-6.5879,0,0,-6.5483,-6.5502,-6.5539,-6.5601,-6.5622,-6.5679,-6.5611,-6.5675,-6.5717,-6.5666,-6.5747,-6.5757,-6.5786,-6.5882,-6.5924,-6.5893,-6.6079,-6.6019,-6.6029,-6.6033,-6.6086,-6.6107,-6.6125,-6.5886,-6.5885,-6.5884,0,0,-6.5619,-6.5639,-6.5716,-6.5739,-6.5771,-6.577,-6.5789,-6.5813,-6.5818,-6.5899,-6.5862,-6.5911,-6.5996,-6.6018,-6.604,-6.6185,-6.6154,-6.62,-6.628,-6.6336,-6.6353,-6.6368,-6.6419,-6.6438,-6.6211,-6.6211,-6.6211,0,-6.5687,-6.5773,-6.5758,-6.5825,-6.5853,-6.5811,-6.5888,-6.591,-6.5955,-6.5975,-6.5939,-6.6045,-6.6062,-6.6162,-6.6198,-6.6217,-6.6237,-6.6197,-6.6352,-6.6367,-6.638,-6.6429,-6.6448,-6.6217,-6.6216,-6.6215,-6.6215,0,-6.5855,-6.5916,-6.5973,-6.602,-6.6054,-6.6126,-6.612,-6.6156,-6.614,-6.6142,-6.6225,-6.6243,-6.6292,-6.6315,-6.6299,-6.6413,-6.6393,-6.6355,-6.6291,-6.6406,-6.6452,-6.647,-6.6224,-6.6222,-6.6221,-6.6219,0,0,-6.6038,-6.6076,-6.6098,-6.6119,-6.6152,-6.6197,-6.6266,-6.6315,-6.6346,-6.6379,-6.6435,-6.6508,-6.6473,-6.6499,-6.6485,-6.6534,-6.6647,-6.649,-6.649,-6.6519,-6.6774,-6.6802,-6.6824,-6.6627,-6.663,-6.6633,-6.6771,0,-6.6175,-6.6297,-6.6285,-6.64,-6.6455,-6.6416,-6.6476,-6.6502,-6.6505,-6.6551,-6.6554,-6.6607,-6.6557,-6.6572,-6.6619,-6.6624,-6.6698,-6.6613,-6.6678,-6.668,-6.6672,-6.6848,-6.6878,-6.7008,-6.6789,-6.6792,-6.6794,0,-6.6351,-6.6392,-6.6513,-6.6538,-6.656,-6.6615,-6.6658,-6.6703,-6.6731,-6.673,-6.676,-6.6737,-6.6805,-6.674,-6.6832,-6.6775,-6.68,-6.6807,-6.6811,-6.6817,-6.6744,-6.6858,-6.7049,-6.7069,-6.6822,-6.682,-6.6818,0,-6.6473,-6.6558,-6.6641,-6.666,-6.6691,-6.673,-6.6744,-6.6769,-6.6799,-6.6837,-6.6856,-6.69,-6.6925,-6.6959,-6.6949,-6.6902,-6.7043,-6.6977,-6.7043,-6.7044,-6.7075,-6.7073,-6.7273,-6.7091,-6.7091,-6.7091,-6.709,0,-6.6627,-6.6703,-6.6696,-6.6748,-6.6831,-6.6816,-6.6897,-6.6907,-6.6929,-6.698,-6.6948,-6.6997,-6.698,-6.7027,-6.7019,-6.7097,-6.7108,-6.7108,-6.7105,-6.7111,-6.7111,-6.7128,-6.7119,-6.7096,-6.7095,-6.7094,-6.7093,0,-6.6778,-6.6776,-6.6865,-6.6887,-6.6895,-6.6955,-6.6973,-6.7021,-6.7022,-6.7087,-6.7101,-6.7103,-6.7156,-6.715,-6.7209,-6.7203,-6.73,-6.7286,-6.7291,-6.7288,-6.7355,-6.7349,-6.7572,-6.76,-6.7401,-6.7403,-6.7404,0,-6.6876,-6.6934,-6.6963,-6.6996,-6.7014,-6.7067,-6.7098,-6.7085,-6.7118,-6.7155,-6.7197,-6.7249,-6.7289,-6.7376,-6.7382,-6.7427,-6.7413,-6.7489,-6.742,-6.7424,-6.7415,-6.7412,-6.7417,-6.7502,-6.7505,-6.7506,-6.7508,0,-6.7052,-6.7049,-6.7096,-6.7143,-6.7181,-6.7217,-6.7249,-6.7278,-6.7267,-6.7306,-6.7362,-6.7393,-6.7454,-6.7505,-6.7548,-6.7561,-6.7533,-6.753,-6.7547,-6.7554,-6.7555,-6.7556,-6.7329,-6.7524,-6.7523,-6.7522,-6.7521,-6.752,-6.7179,-6.7229,-6.7257,-6.7311,-6.7334,-6.7365,-6.7411,-6.7418,-6.7465,-6.7515,-6.7504,-6.7567,-6.7592,-6.7647,-6.7664,-6.7712,-6.7684,-6.771,-6.7716,-6.7723,-6.7731,-6.7548,-6.7719,-6.7719,-6.7718,-6.7718,-6.7717,0,-6.7353,-6.737,-6.7419,-6.7467,-6.7508,-6.748,-6.7514,-6.755,-6.7606,-6.7633,-6.7674,-6.7738,-6.7787,-6.7796,-6.7843,-6.7879,-6.7867,-6.7892,-6.7889,-6.7892,-6.7753,-6.7733,-6.79,-6.79,-6.79,-6.79,-6.79,-6.79,-6.7449,-6.7531,-6.7531,-6.7624,-6.7639,-6.7702,-6.7724,-6.7752,-6.7773,-6.7846,-6.7888,-6.7894,-6.7914,-6.7961,-6.8005,-6.8006,-6.8025,-6.8054,-6.8051,-6.792,-6.7902,-6.7885,-6.7866,-6.8058,-6.8059,-6.8186,-6.8187,-6.8188]}]]